Location: Newark
(55.7083°N, 13.1992°E)
Time: 11:23:08
(UTC+00:00)

ISS - Pass Details

Date: 27 January 2020
Orbit: 415 x 423 km, 51.6° (Epoch: 27 February)

Event Time Altitude Azimuth Distance (km) Brightness Sun altitude
Rises 18:11:19 0° 255° (WSW) 2,379 1.4 -22.4°
Reaches altitude 10° 18:13:29 10° 248° (WSW) 1,513 0.0 -22.7°
Enters shadow 18:15:53 34° 214° (SW) 721 -2.4 -23.0°
